Overview Statistics Trail Chart Weather Telemetry Raw packets
 

This is the latest recevied weather packets stored in our database for station/object W5GMO. If no packets are shown the sender has not sent any weather packets the latest 10 day(s).

<< 24 25 26 27 28 29 30 >>
Time Temp. Humidity Pressure Rain* Wind** Luminosity Snow
1788472767 33.89° C 1% 1013.4 hPa 0 mm - 125 W/m² -
1788472464 33.89° C 1% 1013.4 hPa 0 mm - 143 W/m² -
1788472162 33.89° C 1% 1013.4 hPa 0 mm - 155 W/m² -
1788471858 33.89° C 1% 1013.3 hPa 0 mm - 167 W/m² -
1788471558 33.89° C 1% 1013.4 hPa 0 mm - 176 W/m² -
1788471253 33.33° C 1% 1013.4 hPa 0 mm - 191 W/m² -
1788470949 33.33° C 1% 1013.5 hPa 0 mm - 205 W/m² -
1788470645 33.89° C 1% 1013.5 hPa 0 mm - 221 W/m² -
1788470339 33.89° C 1% 1013.5 hPa 0 mm - 236 W/m² -
1788470035 33.33° C 1% 1013.4 hPa 0 mm - 250 W/m² -
1788469731 33.89° C 1% 1013.6 hPa 0 mm - 266 W/m² -
1788469430 33.89° C 1% 1013.5 hPa 0 mm - 279 W/m² -
1788469124 33.89° C 1% 1013.6 hPa 0 mm - 299 W/m² -
1788468824 34.44° C 1% 1013.8 hPa 0 mm - 314 W/m² -
1788468519 34.44° C 1% 1013.7 hPa 0 mm - 335 W/m² -
1788468216 34.44° C 1% 1013.8 hPa 0 mm - 346 W/m² -
1788467911 33.89° C 1% 1013.7 hPa 0 mm - 340 W/m² -
1788467607 33.89° C 1% 1013.8 hPa 0 mm - 362 W/m² -
1788467306 33.89° C 1% 1014 hPa 0 mm - 379 W/m² -
1788467003 33.89° C 1% 1014 hPa 0 mm - 384 W/m² -
1788466701 33.33° C 1% 1014.2 hPa 0 mm - 408 W/m² -
1788466397 32.78° C 1% 1014.1 hPa 0 mm - 423 W/m² -
1788466095 33.89° C 1% 1014.3 hPa 0 mm - 441 W/m² -
1788465791 33.89° C 1% 1014.4 hPa 0 mm - 450 W/m² -
1788465487 33.33° C 1% 1014.5 hPa 0 mm - 465 W/m² -

* Rain latest hour (hover to see other rain measurements)
** Current wind speed in m/s (hover to see current wind gust speed)